Lid_Strength_Index
4 4 4 3 3 2 1 1 1 0 1 2 2 2 2 1 1 1 -0 -0 -0 -0 -1 0 -0 -1 -1 -1 -1 -0 0 0 -0 1 1 1 -0 -1 -0 -0 -0 -0 -1
4 4 3 3 3 2 2 1 1 1 1 2 2 1 1 1 1 0 -0 -0 0 -0 0 -0 0 -1 -0 -0 -0 0 1 1 0 2 2 4 2 1 0 0 -0 -0 -0
4 4 4 3 3 3 2 2 1 2 2 1 1 1 1 0 1 1 1 1 0 1 1 1 1 -0 -0 1 -0 -0 0 2 1 0 2 4 5 3 1 -0 -0 -0 -0
3 3 3 3 3 3 2 2 2 2 1 1 1 1 1 2 1 1 1 1 1 1 1 1 0 -0 0 -0 0 -0 0 0 2 1 1 0 2 5 5 1 1 0 1
3 4 3 3 2 3 2 1 1 2 1 0 1 1 2 2 2 2 2 0 1 1 2 1 0 -0 0 -1 -0 -0 0 1 1 2 1 1 1 1 3 5 3 1 -0
3 3 3 3 3 3 2 1 2 1 1 1 0 2 2 2 3 3 3 3 2 2 1 1 0 -1 -0 0 -0 0 -0 1 1 1 1 2 3 3 3 4 3 3 1
3 3 3 3 3 3 2 2 2 2 2 1 1 2 2 2 2 3 3 3 3 2 1 1 0 1 0 -0 -1 -0 0 1 1 1 3 2 3 3 4 4 5 5 4
3 3 3 3 2 3 2 2 2 2 1 1 1 1 2 2 2 2 3 3 3 2 1 0 1 0 1 1 1 2 2 1 2 2 2 3 4 3 4 4 5 6 5
3 3 2 2 2 2 2 2 2 1 1 1 1 2 2 1 2 1 1 2 1 2 1 1 1 1 1 1 1 2 2 2 2 2 2 3 4 3 3 4 4 5 7
3 3 2 3 3 2 2 2 1 1 1 1 1 2 2 2 1 1 1 0 1 1 1 1 1 1 1 1 1 2 2 2 3 3 3 2 3 3 4 4 4 4 5
3 3 2 2 3 2 2 2 1 1 1 1 2 2 2 1 1 1 1 1 1 1 2 1 1 2 2 1 2 2 3 3 3 3 3 3 2 4 4 4 4 4 4
3 3 2 2 3 3 2 2 1 1 1 1 2 2 2 1 1 1 1 1 1 1 2 2 3 2 2 1 2 3 3 3 4 3 3 4 4 2 3 4 2 3 2
3 3 2 2 3 2 2 2 2 1 1 1 2 2 2 1 1 1 1 1 1 2 3 3 3 2 2 3 3 3 3 3 3 3 3 3 3 3 4 3 3 3 2
3 3 3 2 3 2 2 2 2 1 1 2 2 2 2 2 1 1 1 2 1 2 3 3 3 3 4 4 4 4 3 3 3 3 2 3 3 4 4 4 2 2 2
4 3 3 3 2 2 2 2 1 1 1 2 2 2 2 1 1 2 2 2 2 2 2 4 3 3 5 6 5 3 3 3 3 3 3 3 3 3 3 4 3 1 2
4 3 3 2 3 2 2 1 2 1 1 2 2 3 2 2 2 2 2 2 2 2 2 4 3 3 5 7 7 6 3 3 3 3 3 3 2 3 3 2 2 1 1
4 3 3 2 2 2 1 1 1 1 1 2 2 2 2 3 3 3 3 2 2 1 2 3 3 3 4 8 8 7 4 3 3 3 3 4 3 2 3 3 2 1 0
3 3 2 2 2 1 1 1 1 2 2 3 3 2 3 3 3 3 3 2 2 2 2 3 3 3 4 8 8 7 3 3 3 2 2 3 2 3 3 2 2 1 1
2 2 2 1 1 1 1 1 2 2 2 3 3 3 4 4 3 3 3 2 2 2 3 3 3 3 3 7 8 7 3 3 3 3 2 2 2 5 4 2 2 2 1
2 2 1 1 1 1 1 1 2 2 3 3 4 4 4 4 4 2 2 1 2 2 3 3 2 4 3 7 8 7 4 3 4 1 2 5 3 5 5 3 2 3 2
2 1 1 2 1 1 1 2 3 3 2 3 3 3 3 3 3 2 1 1 2 2 2 2 2 2 2 3 7 8 3 3 3 3 2 1 4 4 5 5 2 2 3
2 1 2 2 2 1 2 3 3 2 2 3 3 2 2 2 3 2 1 1 1 1 1 1 2 2 2 5 7 7 7 3 2 2 1 1 4 4 5 4 4 5 4
2 1 2 2 2 2 3 3 3 2 2 3 2 2 2 2 2 2 1 2 1 2 2 3 3 3 3 2 7 7 7 6 3 1 2 4 4 4 3 4 4 4 3
2 1 2 2 4 3 3 2 2 1 2 2 2 2 2 2 2 2 1 2 2 3 3 4 4 4 3 3 2 2 1 3 2 1 1 1 2 3 2 2 2 2 3
2 1 2 3 4 3 3 2 1 2 2 2 2 2 3 2 2 1 1 2 1 3 4 4 4 4 4 4 5 5 3 2 3 5 1 1 1 1 2 3 3 3 3
2 2 2 3 3 3 2 1 1 2 2 3 3 3 3 3 2 2 1 6 6 6 7 8 6 3 6 9 8 8 8 8 8 3 1 1 1 2 3 4 4 3 5